College Park, MD

8:32 PM EST on December 06, 2019 (GMT -0500)
College Park

Weather History for KCGS - November, 2019

Change the Weather History Date:

Monday, November 11, 2019

  Actual Average Record
Temperature  
Mean Temperature 50 °F -  
Max Temperature 68 °F 58 °F 77 °F (1949)
Min Temperature 33 °F 39 °F 19 °F (1954)
Degree Days  
Heating Degree Days 14    
Moisture  
Dew Point 35 °F    
Average Humidity 62    
Maximum Humidity 95    
Minimum Humidity 24    
Precipitation  
Precipitation 0.00 in - - ()
Sea Level Pressure  
Sea Level Pressure 29.98 in    
Wind  
Wind Speed 1 mph (South)    
Max Wind Speed 8 mph    
Max Gust Speed -    
Visibility 10 miles    
Events      
Averages and records for this station are not official NWS values.
T = Trace of Precipitation, MM = Missing Value Source: NWS Daily Summary

Daily Weather History Graph

Daily Weather History Graph

Search for Another Location

Airport or City:

Astronomy

Nov. 11, 2019 Rise Set
Actual Time 6:45 AM EST 4:57 PM EST
Civil Twilight 6:17 AM EST 5:25 PM EST
Nautical Twilight 5:45 AM EST 5:57 PM EST
Astronomical Twilight 5:14 AM EST 6:28 PM EST
Moon 4:50 PM EST (11/11) 5:35 AM EST (11/11)
Length of Visible Light 11h 07m
Length of Day
10h 11m
Waxing Gibbous, 99% of the Moon is Illuminated
Nov 11
Waxing Gibbous
Nov 12
Full
Nov 19
Last Quarter
Nov 26
New
Dec 4
First Quarter

Hourly Weather History & Observations

Time (EST) Temp. Dew Point Humidity Pressure Visibility Wind Dir Wind Speed Gust Speed Precip Events Conditions
12:03 AM 37.4 °F 32.7 °F 83% 30.04 in 10.0 mi Calm Calm - N/A   Clear
12:23 AM 36.9 °F 32.2 °F 83% 30.05 in 10.0 mi Calm Calm - N/A   Clear
12:43 AM 37.4 °F 32.7 °F 83% 30.05 in 10.0 mi Calm Calm - N/A   Clear
1:03 AM 36.7 °F 32.5 °F 85% 30.05 in 10.0 mi Calm Calm - N/A   Clear
1:23 AM 36.5 °F 32.4 °F 85% 30.05 in 10.0 mi Calm Calm - N/A   Clear
1:43 AM 36.0 °F 32.4 °F 87% 30.04 in 10.0 mi Calm Calm - N/A   Clear
2:03 AM 35.8 °F 32.5 °F 88% 30.05 in 10.0 mi Calm Calm - N/A   Clear
2:23 AM 35.4 °F 32.9 °F 91% 30.04 in 10.0 mi Calm Calm - N/A   Clear
2:43 AM 35.2 °F 32.9 °F 91% 30.06 in 10.0 mi Calm Calm - N/A   Clear
3:03 AM 34.7 °F 32.7 °F 92% 30.05 in 10.0 mi Calm Calm - N/A   Clear
3:23 AM 34.7 °F 32.9 °F 93% 30.05 in 10.0 mi Calm Calm - N/A   Clear
3:43 AM 34.5 °F 32.7 °F 93% 30.05 in 10.0 mi Calm Calm - N/A   Clear
4:03 AM 34.3 °F 32.5 °F 93% 30.05 in 10.0 mi Calm Calm - N/A   Clear
4:23 AM 33.6 °F 32.0 °F 94% 30.06 in 10.0 mi Calm Calm - N/A   Clear
4:43 AM 33.8 °F 32.2 °F 94% 30.06 in 10.0 mi Calm Calm - N/A   Clear
5:03 AM 33.8 °F 32.2 °F 94% 30.06 in 10.0 mi Calm Calm - N/A   Clear
5:23 AM 33.8 °F 32.0 °F 93% 30.07 in 7.0 mi Calm Calm - N/A   Clear
5:43 AM 33.3 °F 32.0 °F 95% 30.07 in 7.0 mi Calm Calm - N/A   Clear
6:03 AM 33.3 °F 32.0 °F 95% 30.07 in 10.0 mi Calm Calm - N/A   Clear
6:23 AM 33.3 °F 32.0 °F 95% 30.07 in 10.0 mi Calm Calm - N/A   Clear
7:03 AM 33.3 °F 32.0 °F 95% 30.08 in 10.0 mi Calm Calm - N/A   Clear
7:23 AM 34.0 °F 32.4 °F 94% 30.09 in 10.0 mi Calm Calm - N/A   Clear
7:43 AM 34.9 °F 33.3 °F 94% 30.09 in 10.0 mi Calm Calm - N/A   Clear
8:23 AM 39.4 °F 37.6 °F 93% 30.09 in 10.0 mi Calm Calm - N/A   Clear
8:43 AM 41.2 °F 39.6 °F 94% 30.09 in 10.0 mi Calm Calm - N/A   Clear
9:03 AM 44.1 °F 40.6 °F 88% 30.09 in 10.0 mi Calm Calm - N/A   Clear
9:23 AM 47.7 °F 38.1 °F 70% 30.08 in 10.0 mi Calm Calm - N/A   Clear
9:43 AM 49.5 °F 38.5 °F 66% 30.08 in 10.0 mi Calm Calm - N/A   Clear
10:03 AM 52.0 °F 39.2 °F 62% 30.08 in 10.0 mi SSE 3.5 mph - N/A   Clear
10:23 AM 53.4 °F 39.4 °F 59% 30.07 in 10.0 mi Calm Calm - N/A   Clear
10:43 AM 55.4 °F 39.4 °F 55% 30.06 in 10.0 mi Calm Calm - N/A   Clear
11:03 AM 57.0 °F 38.1 °F 49% 30.06 in 10.0 mi Calm Calm - N/A   Clear
11:23 AM 59.7 °F 38.7 °F 46% 30.05 in 10.0 mi Calm Calm - N/A   Clear
11:43 AM 62.1 °F 38.7 °F 42% 30.04 in 10.0 mi Calm Calm - N/A   Clear
12:03 PM 62.8 °F 36.9 °F 38% 30.03 in 10.0 mi Calm Calm - N/A   Clear
12:43 PM 66.4 °F 35.6 °F 32% 29.99 in 10.0 mi South 4.6 mph - N/A   Clear
1:03 PM 66.9 °F 34.3 °F 30% 29.99 in 10.0 mi WSW 4.6 mph - N/A   Clear
1:23 PM 67.5 °F 33.4 °F 28% 29.99 in 10.0 mi SSW 4.6 mph - N/A   Clear
1:43 PM 67.3 °F 32.5 °F 28% 29.97 in 10.0 mi Calm Calm - N/A   Clear
2:03 PM 68.0 °F 32.5 °F 27% 29.97 in 10.0 mi South 5.8 mph - N/A   Clear
2:23 PM 68.4 °F 32.2 °F 26% 29.95 in 10.0 mi SSW 4.6 mph - N/A   Clear
2:43 PM 68.5 °F 31.6 °F 25% 29.94 in 10.0 mi South 4.6 mph - N/A   Clear
3:03 PM 68.2 °F 31.5 °F 26% 29.94 in 10.0 mi South 5.8 mph - N/A   Clear
3:23 PM 67.8 °F 31.1 °F 26% 29.93 in 10.0 mi SSE 4.6 mph - N/A   Clear
3:43 PM 67.1 °F 30.4 °F 25% 29.92 in 10.0 mi SE 6.9 mph - N/A   Clear
4:03 PM 67.1 °F 29.3 °F 24% 29.92 in 10.0 mi SSE 8.1 mph - N/A   Clear
4:23 PM 66.4 °F 29.8 °F 25% 29.92 in 10.0 mi South 4.6 mph - N/A   Clear
4:43 PM 64.8 °F 30.7 °F 28% 29.91 in 10.0 mi SSE 4.6 mph - N/A   Clear
5:03 PM 63.5 °F 32.0 °F 31% 29.90 in 10.0 mi SSE 5.8 mph - N/A   Clear
5:23 PM 62.6 °F 32.9 °F 33% 29.89 in 10.0 mi SSE 4.6 mph - N/A   Clear
5:43 PM 61.2 °F 35.6 °F 39% 29.88 in 10.0 mi SE 4.6 mph - N/A   Clear
6:03 PM 58.6 °F 39.9 °F 50% 29.87 in 10.0 mi SE 3.5 mph - N/A   Clear
6:23 PM 57.9 °F 40.1 °F 52% 29.88 in 10.0 mi Calm Calm - N/A   Clear
6:43 PM 52.5 °F 39.7 °F 62% 29.89 in 10.0 mi Calm Calm - N/A   Clear
7:03 PM 51.6 °F 40.3 °F 65% 29.88 in 10.0 mi Calm Calm - N/A   Clear
7:23 PM 50.0 °F 41.0 °F 71% 29.88 in 10.0 mi Calm Calm - N/A   Clear
7:43 PM 50.2 °F 40.5 °F 69% 29.87 in 10.0 mi Calm Calm - N/A   Clear
8:03 PM 51.4 °F 40.6 °F 67% 29.86 in 10.0 mi Calm Calm - N/A   Clear
8:23 PM 54.3 °F 40.3 °F 59% 29.86 in 10.0 mi Calm Calm - N/A   Clear
9:03 PM 59.0 °F 39.2 °F 48% 29.86 in 10.0 mi South 5.8 mph - N/A   Clear
9:23 PM 59.2 °F 38.3 °F 46% 29.85 in 10.0 mi South 3.5 mph - N/A   Clear
9:43 PM 59.5 °F 37.9 °F 45% 29.84 in 10.0 mi South 4.6 mph - N/A   Clear
10:43 PM 59.5 °F 36.5 °F 42% 29.82 in 10.0 mi South 6.9 mph - N/A   Clear
11:03 PM 59.4 °F 36.5 °F 43% 29.81 in 10.0 mi South 6.9 mph - N/A   Clear
11:23 PM 59.4 °F 36.5 °F 43% 29.80 in 10.0 mi South 6.9 mph - N/A   Clear
11:43 PM 59.4 °F 36.1 °F 42% 29.79 in 10.0 mi South 5.8 mph - N/A   Clear